HIMAWARI 5 (GMS 5)

导读

HIMAWARI 5(GMS 5,向日葵5号)是日本于1995年3月18日发射的地球静止轨道气象卫星,属于日本第一代“向日葵”气象卫星系列的收官星。卫星由日本电气公司独立研制,质量756千克,采用自旋稳定姿态控制,设计寿命超5年。它搭载可见光红外自旋扫描辐射仪与空间环境探测器,可监测东经80°至160°区域,为亚太地区气象观测提供关键数据,现已退役。

基本信息
目录编号:
23522
目录名称:
HIMAWARI 5 (GMS 5)
国际标识:
1995-011B
轨道中心:
EARTH
卫星名称:
HIMAWARI 5 (GMS 5)
卫星全名:
--
卫星状态:
在轨 (已飞行11500 天)
发射日期:
1995-03-18 UTC
国别 :
日本 (JP)
星等 :
--
轨道信息
数据来源 国际轨道数据
星历时间: 2026-09-10T00:23:38+0800
1天前
查看轨道信息
半长轴: 42408.748km
偏心率: 0.0007386
轨道倾角: 14.332°
近地点辐角 168.590°
升交点赤经 3.804°
平近点角 194.966°
近地点: 35999.287km
远地点: 36061.935km
周期: 1448.581分钟
每日圈数: 0.994076
详细信息
使用方式:
暂无
2D轨道图
3D轨道图
轨道高度分析图
轨道倾角分析图
轨道综合分析图
查看轨道综合分析图
与全量物体交会距离演化趋势
与全量物体交会风险概率演化趋势